SL-16 DEB, 39873

Orbit data source: Space-Track

SL-16 DEB, 39873 is space debris in LEO originally from a launch on Fri, 26 Mar 1993 UTC launched from the Tyuratam Missile And Space Complex (TTMTR). Debris objects in space refer to the collection of defunct objects orbiting the Earth. Examples of debris include non-operational satellites, rocket bodies, and fragments generated from explosions, collisions, or faulty payload assembly.

Loading next visibility...
Identifier
39873, 1993-016AX
Orbit
LEO
Country
Flag of CISCIS
Related business
Manufacturer
Unknown
Mission
Spacecraft
Bus & Motor
Unknown
Mass
Unknown
Launch date (UTC)
1993-03-26 (33 years ago)
Launch vehicle
Unknown
Launch site
Tyuratam Missile And Space Complex (TTMTR)
Object type
Payload
Rocket body
Debris
Shape & HBR
Unknown shape, 0.1 m
Radar Cross Section
Small (<0.1 m²)

Expand to show TLE details & history
Last TLE update: 3 weeks ago

TLE from 3 weeks ago
0 SL-16 DEB
1 39873U 93016AX  25276.00458190  .00019015  00000-0  56032-2 0  9992
2 39873  70.3936  38.6557 0082580 182.0008 178.0807 14.41637593588315
Epoch: 2025-10-03T00:06Z
TLE epoch observation values (Epoch: 2025-10-03T00:06:35.876Z)
Latitude
-0.00003°
Longitude
25.04909°
Altitude
814.348 km
Speed
7.416 km/s
True Right ascension
02h 34m 37s
True Declination
0° 00' 00"
Sunlit
Object was in full shadow at epoch
Visualization orbit readout
Latitude
Unknown
Longitude
Unknown
Altitude
Unknown
Speed
Unknown
Apparent Right ascension
Unknown
Apparent Declination
Unknown
Sunlit
N/A
Visualization observer readout
Local Sidereal Time
18:16:00
Azimuth
Unknown
Elevation
Unknown
Doppler factor
Unknown
Orbital elements
Apogee altitude
809.926 km
Perigee altitude
692.18 km
Semi-major axis
7,129.19 km
Eccentricity
0.00826
Inclination
70.3936°
RAAN
38.6557°
Arg. of periapsis
182.0008°
True anomaly
178.11207°
Mean anomaly
178.0807°
Eccentric anomaly
178.09642°
Mean motion
3.60564 °/min
Orbital period
99.84 mins
BSTAR
0.0056032
Loading maneuver chart data...
Computing Atmospheric mass density...
Loading historical data...
Loading historical data...
Loading historical data...
Loading historical data...
Loading historical data...
Loading historical data...
Loading historical data...

Documentation

Showing up to 5 results
|